Showing default

COSMOS 2566, 54383

Orbit data source: Space-Track

COSMOS 2566, 54383 is a payload satellite owned by VVKO VKS (CIS) in LEO that was launched on Wed, 30 Nov 2022 UTC via a SOYUZ-2-1B launch vehicle from the Plesetsk Missile And Space Complex (PKMTR). Payload-class satellites include a variety of spacecraft equipped with specific instruments for various scientific and technological missions. These include communications satellites like Starlink; space stations such as the ISS; scientific satellites like the Hubble; Earth observation satellites from companies like Planet Labs, Umbra, and HawkEye 360; GPS; miniature CubeSats for education and research; and military/defense satellites.

Loading next visibility...
Identifier
54383, 2022-163C
Orbit
LEO
Country
Flag of CISCIS
Related business
Manufacturer
TSSKBP/ARSLO
Mission
Operational Defense Sigint
Bus & Motor
UNK, Unknown motor
Mass
~10 kg wet, ~10 kg dry
Launch date (UTC)
2022-11-30 (4 years ago)
Launch vehicle
SOYUZ-2-1B
Launch site
Plesetsk Missile And Space Complex (PKMTR)
Object type
Payload
Rocket body
Debris
Shape & HBR
Box, 0.1 m
Radar Cross Section
0.080 m², Medium (>0.1 m² and < 1m²)

Expand to show TLE details & history
Last TLE update: 1 day ago

TLE from 1 day ago
0 COSMOS 2566
1 54383U 22163C   26172.52281973 -.00000027  00000-0  34168-4 0  9998
2 54383  67.1433  91.5412 0002434  40.5304 319.5962 13.97712137181174
Epoch: 2026-06-21T12:32Z
TLE epoch observation values (Epoch: 2026-06-21T12:32:51.624Z)
Latitude
-0.00003°
Longitude
-6.39579°
Altitude
902.488 km
Speed
7.402 km/s
True Right ascension
06h 06m 09s
True Declination
0° 00' 00"
Sunlit
Object was in daylight at epoch
Visualization orbit readout
Latitude
Unknown
Longitude
Unknown
Altitude
Unknown
Speed
Unknown
Apparent Right ascension
Unknown
Apparent Declination
Unknown
Sunlit
N/A
Visualization observer readout
Local Sidereal Time
23:21:54
Azimuth
Unknown
Elevation
Unknown
Doppler factor
Unknown
Orbital elements
Apogee altitude
901.849 km
Perigee altitude
898.306 km
Semi-major axis
7,278.214 km
Eccentricity
0.00024
Inclination
67.1433°
RAAN
91.5412°
Arg. of periapsis
40.5304°
True anomaly
319.57812°
Mean anomaly
319.5962°
Eccentric anomaly
319.58716°
Mean motion
3.49547 °/min
Orbital period
102.99 mins
BSTAR
0.000034168
Loading maneuver chart data...
Computing Atmospheric mass density...
Loading historical data...
Loading historical data...
Loading historical data...
Loading historical data...
Loading historical data...
Loading historical data...
Loading historical data...
Other satellites on launch #163 in the year 2022 (2022-11-30 UTC)

Documentation

Showing up to 5 results
|